[[{"header":{"parameterUnit":"m.s-1","parameterCategory":2,"la1":30.2991,"la2":30.254,"lo1":-89.0895,"lo2":-89.0444,"dy":0.0017,"dx":0.0017,"nx":28,"ny":28,"refTime":"2024-08-28T03:00:00:Z","depth":"0","parameterNumber":2,"parameterNumberName":"U-component_of_CURRENTS"},"data":[0,0,0,0,0,0,0,0,0,0,0,0,0,0,0,0,0,0,0,0,0,0,0,0,0,0,0,0,0,0,0,0,0,0,0,0,0,0,0,0,0,0,0,0,0,0,0,0,0,0,0,0,0,0,0,0,0,0,0.2742,0.2743,0,0.2804,0.2804,0.2805,0.2821,0.282,0.282,0.282,0.2834,0.2835,0.2835,0,0,0,0,0,0,0,0,0,0,0,0,0,0.2625,0.2627,0.2742,0.2743,0.2744,0.2804,0.2804,0.2805,0.2821,0.282,0.282,0.282,0.2834,0.2834,0.2835,0,0,0,0,0,0,0,0,0,0,0,0,0,0.2678,0.2628,0.2742,0.2761,0.2763,0.2804,0.2805,0.2805,0.2821,0.282,0.282,0.282,0.2834,0.2834,0.2835,0.2845,0,0,0.2838,0.2838,0,0,0,0,0,0,0,0,0.2675,0.2682,0.2757,0.2759,0.2762,0.2806,0.2769,0.2817,0.2821,0.2796,0.282,0.282,0.2822,0.2824,0.2833,0.2846,0.2847,0.2838,0.2838,0.2839,0.2839,0,0,0,0,0,0,0,0.2671,0.2679,0.2764,0.2758,0.2761,0.2762,0.2769,0.2778,0.2807,0.2798,0.28,0.2811,0.2823,0.2833,0.2834,0.2847,0.2838,0.2838,0.2839,0.2839,0.2872,0.2873,0,0,0,0,0,0,0.267,0.2676,0.2762,0.2766,0.272,0.2765,0.2772,0.279,0.2808,0.2812,0.2811,0.2812,0.2831,0.2833,0.2834,0.287,0.2839,0.2839,0.284,0.2872,0.2872,0.2873,0,0,0,0,0,0,0.2667,0.2677,0.276,0.2724,0.2735,0.2767,0.2787,0.2792,0.2804,0.2819,0.2821,0.2819,0.2831,0.2833,0.2841,0.2869,0.284,0.284,0.2871,0.2872,0.2872,0.2926,0,0,0,0,0,0,0.2664,0.2676,0.2686,0.2724,0.2737,0.2789,0.2788,0.2793,0.2813,0.2814,0.2826,0.2827,0.2831,0.284,0.2842,0.287,0.2841,0.2871,0.2872,0.2872,0.2924,0.2929,0.2933,0,0,0,0,0,0.2659,0.2671,0.2686,0.2697,0.2751,0.279,0.2796,0.2816,0.2813,0.2824,0.2826,0.2827,0.2846,0.2841,0.2843,0.2872,0.287,0.2871,0.2872,0.2922,0.2928,0.2933,0,0,0,0,0,0,0.2618,0.2675,0.2692,0.2719,0.2756,0.2793,0.2806,0.2818,0.283,0.2826,0.2831,0.2833,0.2854,0.2847,0.2841,0.2881,0.2859,0.2861,0.2896,0.2902,0.2906,0.291,0.2842,0,0,0,0,0,0.2617,0.2646,0.2696,0.2718,0.2738,0.2772,0.2789,0.2805,0.2823,0.2829,0.2839,0.2845,0.286,0.2866,0.2875,0.2894,0.2936,0.2913,0.2917,0.2921,0.2924,0.3011,0.3025,0.2876,0.2876,0.2876,0,0,0.2607,0.2643,0.2658,0.2713,0.2742,0.2774,0.2781,0.2811,0.2835,0.2827,0.2853,0.2861,0.2866,0.2893,0.2902,0.2891,0.299,0.2922,0.2926,0.2926,0.3014,0.3029,0.3042,0.2876,0.2876,0.2876,0,0,0.2602,0.2636,0.2659,0.2694,0.2745,0.2772,0.2781,0.2824,0.284,0.2866,0.287,0.2892,0.2907,0.2927,0.2936,0.2966,0.301,0.2967,0.2997,0.3082,0.3096,0.3109,0.3209,0.323,0.297,0.297,0.297,0,0.2583,0.2627,0.2669,0.2703,0.2733,0.2771,0.2801,0.2828,0.2864,0.2889,0.2877,0.2931,0.2928,0.2979,0.2984,0.298,0.304,0.2981,0.3092,0.3105,0.3117,0.3216,0.3239,0.2973,0.2973,0.2972,0.2972,0,0.2601,0.2636,0.2653,0.2714,0.2751,0.2781,0.2833,0.2867,0.2889,0.292,0.2973,0.2982,0.3022,0.3022,0.3008,0.309,0.3112,0.3092,0.3086,0.3136,0.3237,0.326,0.2977,0.2976,0.2975,0.2974,0,0,0.2554,0.2646,0.2651,0.2689,0.276,0.2794,0.2846,0.2911,0.2957,0.2991,0.3057,0.3073,0.3095,0.3105,0.3108,0.316,0.3294,0.3159,0.3162,0.3273,0.3513,0.348,0.3502,0.3305,0.3308,0.3311,0.3561,0,0.2552,0.2613,0.2663,0.2721,0.276,0.2824,0.2872,0.2937,0.2992,0.3065,0.3101,0.3158,0.3125,0.3157,0.3208,0.3273,0.3351,0.3229,0.3435,0.3441,0.3418,0.3526,0.3406,0.3614,0.3583,0.3587,0.359,0,0.2546,0.2597,0.265,0.2744,0.2767,0.2803,0.291,0.2962,0.307,0.312,0.3199,0.324,0.3333,0.3287,0.346,0.3392,0.3458,0.3499,0.351,0.3473,0.345,0.3552,0.3657,0.353,0.3625,0.3622,0.3619,0,0.2495,0.2584,0.2628,0.2659,0.2768,0.2805,0.2863,0.297,0.3029,0.317,0.3245,0.3356,0.3436,0.3531,0.3623,0.3566,0.3816,0.3755,0.3797,0.3797,0.3729,0.3716,0.3742,0.3888,0.3888,0.3887,0.3886,0,0.2472,0.2509,0.2606,0.2632,0.2687,0.2779,0.2852,0.2933,0.3058,0.3154,0.327,0.3375,0.35,0.3648,0.3703,0.3846,0.3906,0.3838,0.3867,0.3744,0.373,0.3639,0.3587,0.3896,0.3894,0.3892,0.3891,0,0.2412,0.2472,0.2529,0.2635,0.2661,0.2703,0.2821,0.2897,0.3026,0.3166,0.3223,0.3431,0.3638,0.3771,0.3956,0.3964,0.3981,0.4115,0.397,0.3974,0.3832,0.3787,0.374,0.3628,0.4204,0.4205,0.4205,0,0.2389,0.2413,0.2504,0.254,0.2584,0.2659,0.2721,0.2852,0.2947,0.3196,0.3273,0.3516,0.3671,0.3956,0.4047,0.4204,0.4042,0.4154,0.399,0.3839,0.3814,0.3629,0.3523,0.3949,0.3948,0.3947,0.3946,0,0.2366,0.2393,0.2447,0.2519,0.2578,0.2627,0.2729,0.2781,0.2975,0.3102,0.3306,0.3443,0.3747,0.3859,0.4067,0.4124,0.3935,0.413,0.4019,0.366,0.342,0.332,0.3782,0.3935,0.3936,0.3937,0.3937,0.3938,0.2367,0.2391,0.248,0.2526,0.2576,0.2614,0.2624,0.275,0.2862,0.3037,0.3239,0.3413,0.3651,0.3916,0.3943,0.3917,0.3874,0.3808,0.3793,0.3638,0.3426,0.3866,0.4002,0.4003,0.4005,0.4006,0.4007,0,0.2426,0.2465,0.2501,0.2557,0.2563,0.2596,0.2656,0.2655,0.2737,0.2931,0.3084,0.3346,0.347,0.3616,0.3728,0.3614,0.3407,0.3506,0.3214,0.3144,0.3601,0.348,0.3452,0.3452,0.3452,0.3452,0.3452,0.3452,0.2497,0.255,0.2542,0.255,0.255,0.2516,0.2508,0.2504,0.259,0.2717,0.2855,0.3042,0.332,0.3495,0.3431,0.3347,0.3058,0.2941,0.2898,0.3216,0.324,0.3262,0.3133,0.3033,0.3033,0.2287,0.2281,0.2277]},{"header":{"parameterUnit":"m.s-1","parameterCategory":2,"la1":30.2991,"la2":30.254,"lo1":-89.0895,"lo2":-89.0444,"dy":0.0017,"dx":0.0017,"nx":28,"ny":28,"refTime":"2024-08-28T03:00:00:Z","depth":"0","parameterNumber":3,"parameterNumberName":"V-component_of_CURRENTS"},"data":[0,0,0,0,0,0,0,0,0,0,0,0,0,0,0,0,0,0,0,0,0,0,0,0,0,0,0,0,0,0,0,0,0,0,0,0,0,0,0,0,0,0,0,0,0,0,0,0,0,0,0,0,0,0,0,0,0,0,-0.01,-0.01,0,-0.0143,-0.0144,-0.0145,-0.0189,-0.0189,-0.019,-0.019,-0.0268,-0.027,-0.0271,0,0,0,0,0,0,0,0,0,0,0,0,0,-0.0076,-0.0076,-0.0099,-0.01,-0.01,-0.0143,-0.0144,-0.0145,-0.0189,-0.0189,-0.019,-0.0191,-0.0268,-0.027,-0.0272,0,0,0,0,0,0,0,0,0,0,0,0,0,-0.0101,-0.0077,-0.0099,-0.0127,-0.013,-0.0143,-0.0144,-0.0145,-0.0189,-0.0189,-0.019,-0.0191,-0.0267,-0.0269,-0.0272,-0.0271,0,0,-0.0279,-0.028,0,0,0,0,0,0,0,0,-0.0099,-0.0102,-0.0122,-0.0125,-0.0128,-0.0161,-0.0164,-0.0189,-0.0188,-0.0167,-0.019,-0.0191,-0.0234,-0.0239,-0.0247,-0.0275,-0.0278,-0.0279,-0.0281,-0.0282,-0.0282,0,0,0,0,0,0,0,-0.0098,-0.01,-0.0118,-0.0123,-0.0126,-0.0145,-0.0149,-0.0169,-0.0197,-0.0169,-0.0172,-0.0175,-0.0236,-0.0244,-0.0249,-0.0279,-0.0279,-0.0281,-0.0283,-0.0284,-0.0298,-0.0297,0,0,0,0,0,0,-0.0088,-0.0098,-0.0116,-0.0119,-0.0114,-0.0144,-0.0149,-0.015,-0.0196,-0.0204,-0.0175,-0.0177,-0.024,-0.0246,-0.0252,-0.0239,-0.0282,-0.0284,-0.0285,-0.0299,-0.0297,-0.0296,0,0,0,0,0,0,-0.0087,-0.0089,-0.0115,-0.0109,-0.0114,-0.0144,-0.0145,-0.0151,-0.0158,-0.02,-0.0208,-0.0176,-0.0241,-0.0249,-0.026,-0.0243,-0.0285,-0.0287,-0.03,-0.0298,-0.0297,-0.0223,0,0,0,0,0,0,-0.0086,-0.0089,-0.0086,-0.0108,-0.0114,-0.011,-0.0144,-0.0151,-0.0159,-0.0163,-0.0204,-0.0212,-0.0242,-0.0256,-0.0262,-0.0247,-0.0289,-0.0301,-0.0299,-0.0297,-0.0227,-0.0219,-0.0212,0,0,0,0,0,-0.0085,-0.0069,-0.0085,-0.0088,-0.0109,-0.0109,-0.0113,-0.0138,-0.0158,-0.015,-0.0179,-0.0211,-0.0248,-0.0257,-0.0264,-0.025,-0.0302,-0.03,-0.0297,-0.023,-0.0221,-0.0213,0,0,0,0,0,0,-0.0051,-0.0073,-0.0091,-0.0081,-0.0092,-0.0116,-0.0112,-0.0131,-0.0148,-0.0156,-0.0199,-0.0208,-0.0213,-0.0237,-0.0247,-0.0247,-0.0279,-0.0278,-0.0225,-0.0217,-0.021,-0.0197,-0.0291,0,0,0,0,0,-0.0044,-0.0042,-0.0063,-0.0055,-0.0059,-0.0086,-0.0091,-0.0107,-0.0126,-0.0135,-0.0163,-0.019,-0.0208,-0.0217,-0.0239,-0.0237,-0.025,-0.0232,-0.0224,-0.0218,-0.0211,-0.0219,-0.0212,-0.0288,-0.0288,-0.0288,0,0,-0.0028,-0.004,-0.0038,-0.0048,-0.0062,-0.0051,-0.009,-0.009,-0.0082,-0.014,-0.0137,-0.0168,-0.0202,-0.0202,-0.0206,-0.0221,-0.0198,-0.0215,-0.021,-0.0206,-0.0216,-0.0208,-0.0202,-0.0287,-0.0287,-0.0287,0,0,0.0013,-0.0005,0.001,0.0008,-0.0006,-0.0022,-0.0018,-0.0039,-0.005,-0.0052,-0.0091,-0.0109,-0.0135,-0.0154,-0.0168,-0.0133,-0.0163,-0.0138,-0.009,-0.0096,-0.009,-0.0085,-0.0071,-0.0065,-0.0132,-0.0131,-0.0131,0,0.0033,0.0046,0.0018,0.0036,0.0038,-0.0004,0.0019,0.0008,-0.0013,-0.0016,-0.004,-0.0075,-0.0112,-0.0108,-0.0099,-0.0118,-0.0118,-0.012,-0.0087,-0.0082,-0.0078,-0.0065,-0.006,-0.0128,-0.0128,-0.0128,-0.0129,0,0.0088,0.0095,0.0109,0.0111,0.0112,0.0127,0.0106,0.0104,0.0079,0.0062,0.0055,0.001,-0.0008,-0.0024,-0.0055,-0.0039,-0.0045,-0.0079,-0.0108,-0.0066,-0.0055,-0.005,-0.0122,-0.0124,-0.0125,-0.0126,0,0,0.014,0.0145,0.0149,0.0161,0.0152,0.0163,0.0173,0.0172,0.0191,0.0154,0.018,0.0126,0.0098,0.0081,0.0042,0.0028,0.0053,-0.0006,-0.0009,0.001,0.0062,0.0057,0.0061,0.0027,0.0028,0.0028,0.0066,0,0.0189,0.0235,0.0222,0.0265,0.0285,0.0255,0.0275,0.0267,0.0254,0.0273,0.0217,0.0229,0.0141,0.015,0.0116,0.0076,0.0065,0.0048,0.0016,0.0016,0.0007,0.0065,0.0051,0.0082,0.007,0.0071,0.0071,0,0.0249,0.0268,0.0319,0.0337,0.0344,0.0369,0.039,0.0405,0.0406,0.0401,0.0385,0.0354,0.0336,0.0261,0.0198,0.0195,0.0135,0.0091,0.009,0.0061,0.0018,0.0033,0.009,-0.0132,0.0077,0.0077,0.0076,0,0.0301,0.0335,0.0376,0.0386,0.0404,0.0427,0.044,0.0446,0.0491,0.0505,0.0562,0.0489,0.0523,0.0406,0.0312,0.0262,0.0258,0.0174,0.0112,0.0112,0.008,0.0076,-0.0082,0.013,0.013,0.013,0.013,0,0.0357,0.0391,0.0409,0.0437,0.0493,0.0491,0.0565,0.0563,0.0624,0.0735,0.065,0.0752,0.0566,0.0542,0.0386,0.0291,0.0316,0.0141,0.0124,0.0108,0.0106,-0.0106,-0.022,0.0132,0.0131,0.0131,0.0131,0,0.0409,0.0417,0.0472,0.0508,0.0521,0.0571,0.0659,0.0739,0.0776,0.0933,0.0965,0.0979,0.0958,0.077,0.0631,0.0442,0.02,0.0268,0.0275,0.0257,-0.0062,-0.0169,-0.0295,-0.0379,0.018,0.018,0.018,0,0.0441,0.0475,0.053,0.0584,0.0608,0.0683,0.0759,0.0804,0.0926,0.1109,0.1227,0.1256,0.1329,0.1104,0.0767,0.0494,0.028,0.0281,0.0152,-0.0063,-0.0195,-0.027,-0.0338,0.015,0.015,0.0149,0.0149,0,0.0516,0.0536,0.0588,0.0704,0.0791,0.0887,0.1016,0.1133,0.1263,0.1421,0.1665,0.1739,0.1536,0.1275,0.0869,0.064,0.0117,0.0269,0.0038,-0.0232,-0.0314,-0.0406,0.0119,0.0148,0.0148,0.0148,0.0149,0.0149,0.0593,0.0652,0.0751,0.0862,0.0964,0.114,0.1261,0.1447,0.1677,0.1954,0.199,0.2137,0.168,0.1129,0.0804,0.0123,0.0137,-0.0114,-0.022,-0.027,-0.0383,0.0154,0.0161,0.0161,0.0162,0.0162,0.0162,0,0.0737,0.0815,0.0919,0.1078,0.123,0.1249,0.1479,0.1635,0.1949,0.2171,0.2362,0.2199,0.1651,0.1042,0.014,-0.0307,-0.048,-0.0553,-0.0699,-0.0742,-0.0274,-0.0313,-0.0398,-0.0398,-0.0398,-0.0398,-0.0397,-0.0397,0.084,0.0988,0.1042,0.1316,0.142,0.1637,0.1778,0.1998,0.218,0.2449,0.2516,0.2527,0.2007,0.0473,-0.0588,-0.0828,-0.1118,-0.1157,-0.1293,-0.1039,-0.1008,-0.0979,-0.1045,-0.1282,-0.1283,-0.1726,-0.1731,-0.1735]}],[{"header":{"parameterUnit":"m.s-1","parameterCategory":2,"la1":30.2991,"la2":30.254,"lo1":-89.0895,"lo2":-89.0444,"dy":0.0017,"dx":0.0017,"nx":28,"ny":28,"refTime":"2024-08-28T03:00:00:Z","depth":"2","parameterNumber":2,"parameterNumberName":"U-component_of_CURRENTS"},"data":[0,0,0,0,0,0,0,0,0,0,0,0,0,0,0,0,0,0,0,0,0,0,0,0,0,0,0,0,0,0,0,0,0,0,0,0,0,0,0,0,0,0,0,0,0,0,0,0,0,0,0,0,0,0,0,0,0,0,0.2345,0.2346,0,0.2376,0.2376,0.2376,0.2383,0.2383,0.2383,0.2383,0.2445,0.2446,0.2448,0,0,0,0,0,0,0,0,0,0,0,0,0,0.2267,0.2268,0.2345,0.2346,0.2347,0.2376,0.2376,0.2376,0.2383,0.2383,0.2383,0.2383,0.2444,0.2446,0.2448,0,0,0,0,0,0,0,0,0,0,0,0,0,0.2296,0.2268,0.2345,0.2356,0.2358,0.2376,0.2376,0.2376,0.2383,0.2383,0.2383,0.2383,0.2444,0.2446,0.2448,0.2459,0,0,0.2455,0.2456,0,0,0,0,0,0,0,0,0.2294,0.2298,0.2354,0.2356,0.2357,0.2379,0.2371,0.2406,0.2383,0.237,0.2383,0.2384,0.2428,0.2431,0.2431,0.2462,0.2464,0.2455,0.2457,0.2458,0.2458,0,0,0,0,0,0,0,0.2292,0.2297,0.2354,0.2355,0.2357,0.2351,0.2355,0.2377,0.2395,0.2371,0.2372,0.2381,0.2429,0.2429,0.2433,0.2465,0.2455,0.2457,0.2459,0.246,0.2515,0.2516,0,0,0,0,0,0,0.2297,0.2295,0.2353,0.2355,0.233,0.2353,0.2357,0.2369,0.2394,0.2399,0.2381,0.2382,0.2425,0.243,0.2435,0.2491,0.2458,0.246,0.2461,0.2515,0.2516,0.2516,0,0,0,0,0,0,0.2295,0.2302,0.2352,0.2328,0.2335,0.2354,0.2367,0.2369,0.2389,0.2402,0.2407,0.2401,0.2425,0.2432,0.2454,0.2492,0.2461,0.2463,0.2515,0.2515,0.2516,0.2576,0,0,0,0,0,0,0.2293,0.2301,0.2311,0.2329,0.2336,0.2368,0.2367,0.237,0.2395,0.2396,0.2421,0.2425,0.2426,0.245,0.2456,0.2494,0.2465,0.2515,0.2515,0.2516,0.2573,0.2578,0.2581,0,0,0,0,0,0.229,0.2298,0.2311,0.2319,0.235,0.2368,0.2371,0.2383,0.2396,0.2401,0.2412,0.2425,0.2456,0.2452,0.2459,0.2499,0.2515,0.2515,0.2515,0.2572,0.2577,0.2581,0,0,0,0,0,0,0.2262,0.23,0.2315,0.2334,0.2355,0.2371,0.2382,0.2396,0.241,0.2418,0.2428,0.2433,0.2473,0.2465,0.2461,0.251,0.2488,0.2489,0.2528,0.2533,0.2537,0.2536,0.2467,0,0,0,0,0,0.2264,0.2286,0.2316,0.2333,0.2348,0.2372,0.2384,0.2396,0.2412,0.2419,0.2435,0.245,0.2476,0.2487,0.2503,0.2528,0.2552,0.2554,0.2558,0.2562,0.2562,0.2626,0.2637,0.2516,0.2516,0.2516,0,0,0.2259,0.2283,0.2296,0.233,0.235,0.2369,0.2379,0.2405,0.2423,0.2426,0.2453,0.2475,0.2486,0.2516,0.2532,0.2517,0.2611,0.2562,0.2566,0.2564,0.2627,0.264,0.265,0.2517,0.2517,0.2517,0,0,0.2256,0.2285,0.2302,0.2332,0.2371,0.2377,0.2392,0.2421,0.2437,0.2462,0.2478,0.2512,0.2535,0.2554,0.2567,0.2599,0.2637,0.2611,0.263,0.2692,0.2704,0.2714,0.2778,0.2793,0.2605,0.2605,0.2605,0,0.2246,0.2278,0.2308,0.2339,0.2361,0.2385,0.2406,0.2425,0.2456,0.2487,0.2474,0.2542,0.2552,0.2609,0.2613,0.2614,0.2656,0.2618,0.2702,0.2712,0.2721,0.2784,0.28,0.2608,0.2608,0.2608,0.2607,0,0.2263,0.2295,0.231,0.2354,0.2374,0.2401,0.2434,0.2467,0.2487,0.2514,0.2579,0.2586,0.2632,0.264,0.2634,0.2712,0.2725,0.2712,0.2698,0.2738,0.2801,0.2817,0.2612,0.2611,0.261,0.261,0,0,0.2222,0.2303,0.231,0.2344,0.2391,0.241,0.2453,0.2501,0.2552,0.2579,0.2644,0.2673,0.2702,0.2715,0.2728,0.2761,0.2864,0.2763,0.2765,0.2842,0.3022,0.2944,0.2954,0.288,0.2883,0.2885,0.3046,0,0.2223,0.2272,0.2312,0.2359,0.2385,0.2442,0.2478,0.2535,0.2577,0.2645,0.2687,0.2749,0.2725,0.2764,0.2797,0.286,0.2906,0.2822,0.2957,0.2961,0.29,0.2969,0.273,0.2846,0.3062,0.3065,0.3066,0,0.222,0.2256,0.2296,0.2379,0.2398,0.2429,0.2513,0.2558,0.2664,0.2714,0.2789,0.2827,0.2909,0.2864,0.2993,0.295,0.2989,0.3014,0.3022,0.2935,0.2911,0.2835,0.2867,0.3093,0.3091,0.3089,0.3087,0,0.2165,0.2246,0.2273,0.2306,0.2394,0.2439,0.2487,0.2583,0.2647,0.2776,0.2849,0.2934,0.3016,0.3063,0.3115,0.3081,0.3241,0.3206,0.3171,0.3167,0.2979,0.2953,0.3288,0.3288,0.3287,0.3287,0.3287,0,0.2142,0.2176,0.2262,0.2288,0.2344,0.242,0.2496,0.2579,0.2699,0.2789,0.2889,0.2974,0.3074,0.3165,0.3173,0.3233,0.3305,0.3194,0.3207,0.2992,0.2966,0.3176,0.3161,0.3293,0.3292,0.3291,0.3289,0,0.2085,0.2137,0.2192,0.229,0.2321,0.237,0.25,0.2567,0.2701,0.2827,0.2883,0.3063,0.3195,0.326,0.337,0.3332,0.3369,0.3363,0.3104,0.3081,0.3243,0.3229,0.3362,0.336,0.3359,0.3358,0.3358,0,0.2061,0.2081,0.2179,0.2215,0.2265,0.2349,0.2409,0.255,0.2623,0.286,0.2915,0.3113,0.3203,0.3349,0.3335,0.3365,0.3394,0.3143,0.3009,0.3252,0.3253,0.324,0.3228,0.2802,0.2797,0.2793,0.2789,0,0.2031,0.2068,0.2114,0.2182,0.2248,0.2315,0.2411,0.2462,0.2639,0.2743,0.2906,0.3006,0.3184,0.3121,0.3175,0.3139,0.3111,0.3055,0.341,0.2803,0.2733,0.273,0.2735,0.2751,0.2755,0.2758,0.276,0.2761,0.2026,0.2048,0.2114,0.2166,0.2239,0.2289,0.2291,0.2394,0.2484,0.2601,0.2758,0.2823,0.2904,0.2866,0.2799,0.2761,0.2956,0.2806,0.2817,0.2833,0.2721,0.265,0.2634,0.2637,0.264,0.2642,0.2644,0,0.2032,0.2066,0.2103,0.2165,0.219,0.2247,0.2301,0.2256,0.2297,0.2437,0.2515,0.2351,0.2348,0.243,0.2328,0.2335,0.2283,0.2229,0.2138,0.218,0.2216,0.2068,0.1811,0.1808,0.1806,0.1803,0,0,0.2058,0.2085,0.2085,0.2107,0.2135,0.2103,0.2097,0.2055,0.2092,0.2057,0.2075,0.2241,0.2374,0.2052,0.2028,0.191,0.2022,0.1838,0.2515,0.2452,0.2484,0.257,0.2394,0,0,0,0,0]},{"header":{"parameterUnit":"m.s-1","parameterCategory":2,"la1":30.2991,"la2":30.254,"lo1":-89.0895,"lo2":-89.0444,"dy":0.0017,"dx":0.0017,"nx":28,"ny":28,"refTime":"2024-08-28T03:00:00:Z","depth":"2","parameterNumber":3,"parameterNumberName":"V-component_of_CURRENTS"},"data":[0,0,0,0,0,0,0,0,0,0,0,0,0,0,0,0,0,0,0,0,0,0,0,0,0,0,0,0,0,0,0,0,0,0,0,0,0,0,0,0,0,0,0,0,0,0,0,0,0,0,0,0,0,0,0,0,0,0,-0.0071,-0.0071,0,-0.0114,-0.0115,-0.0115,-0.0151,-0.0152,-0.0152,-0.0152,-0.0242,-0.0244,-0.0246,0,0,0,0,0,0,0,0,0,0,0,0,0,-0.0046,-0.0046,-0.0071,-0.0071,-0.0072,-0.0114,-0.0115,-0.0116,-0.0151,-0.0152,-0.0152,-0.0152,-0.0241,-0.0244,-0.0246,0,0,0,0,0,0,0,0,0,0,0,0,0,-0.0071,-0.0046,-0.0071,-0.0094,-0.0097,-0.0114,-0.0115,-0.0116,-0.0151,-0.0152,-0.0152,-0.0153,-0.0241,-0.0244,-0.0247,-0.0257,0,0,-0.0256,-0.0258,0,0,0,0,0,0,0,0,-0.0069,-0.0072,-0.009,-0.0093,-0.0095,-0.0127,-0.0139,-0.0165,-0.0151,-0.0131,-0.0152,-0.0153,-0.0207,-0.0213,-0.0221,-0.0261,-0.0265,-0.0257,-0.0259,-0.026,-0.0261,0,0,0,0,0,0,0,-0.0067,-0.007,-0.0089,-0.0091,-0.0094,-0.0112,-0.0116,-0.0144,-0.0168,-0.0133,-0.0136,-0.0139,-0.0209,-0.0217,-0.0223,-0.0266,-0.0257,-0.0259,-0.0261,-0.0262,-0.0311,-0.0311,0,0,0,0,0,0,-0.0059,-0.0068,-0.0087,-0.009,-0.0082,-0.0112,-0.0116,-0.0117,-0.0166,-0.0174,-0.0139,-0.0141,-0.0212,-0.0219,-0.0226,-0.0233,-0.026,-0.0263,-0.0265,-0.0312,-0.0311,-0.0311,0,0,0,0,0,0,-0.0058,-0.006,-0.0086,-0.008,-0.0084,-0.0111,-0.0113,-0.0118,-0.0127,-0.017,-0.0178,-0.0143,-0.0212,-0.0222,-0.0243,-0.0237,-0.0264,-0.0267,-0.0313,-0.0312,-0.0311,-0.0251,0,0,0,0,0,0,-0.0057,-0.0059,-0.0056,-0.0079,-0.0084,-0.0087,-0.0112,-0.0118,-0.0128,-0.0131,-0.0176,-0.0185,-0.0214,-0.0238,-0.0246,-0.0242,-0.027,-0.0313,-0.0312,-0.0311,-0.0253,-0.0248,-0.0243,0,0,0,0,0,-0.0056,-0.0043,-0.0056,-0.0058,-0.0079,-0.0086,-0.009,-0.0112,-0.0128,-0.0124,-0.0154,-0.0183,-0.0237,-0.024,-0.0249,-0.0246,-0.0314,-0.0313,-0.0311,-0.0256,-0.0249,-0.0243,0,0,0,0,0,0,-0.0027,-0.0046,-0.0061,-0.0054,-0.0067,-0.0092,-0.009,-0.0108,-0.0129,-0.0135,-0.0177,-0.0187,-0.0205,-0.0231,-0.0233,-0.0256,-0.028,-0.0281,-0.0234,-0.0228,-0.0223,-0.0205,-0.0272,0,0,0,0,0,-0.002,-0.0018,-0.0039,-0.0034,-0.0039,-0.0066,-0.0072,-0.0088,-0.0109,-0.0119,-0.0149,-0.0181,-0.0206,-0.0221,-0.0247,-0.026,-0.0285,-0.0263,-0.0258,-0.0253,-0.0244,-0.0275,-0.0272,-0.0306,-0.0306,-0.0306,0,0,-0.0008,-0.0018,-0.0017,-0.0029,-0.0043,-0.0038,-0.0071,-0.0075,-0.0073,-0.0126,-0.0132,-0.0166,-0.0206,-0.0218,-0.0228,-0.0239,-0.0256,-0.0252,-0.0248,-0.0241,-0.0273,-0.027,-0.0267,-0.0305,-0.0306,-0.0306,0,0,0.0022,0.0009,0.002,0.0015,-0.0001,-0.0016,-0.0015,-0.0038,-0.0049,-0.0061,-0.0098,-0.0123,-0.0162,-0.0185,-0.0203,-0.0185,-0.0229,-0.0197,-0.0156,-0.0186,-0.0184,-0.0182,-0.0206,-0.0207,-0.0193,-0.0193,-0.0193,0,0.0036,0.0048,0.0024,0.0035,0.0037,-0.0002,0.0014,-0.0,-0.0027,-0.0031,-0.0054,-0.0106,-0.0144,-0.0157,-0.0152,-0.0174,-0.0196,-0.0177,-0.0179,-0.0178,-0.0177,-0.0203,-0.0204,-0.019,-0.019,-0.019,-0.0191,0,0.0076,0.0084,0.0093,0.0093,0.0091,0.01,0.0078,0.0073,0.0049,0.0029,0.001,-0.004,-0.0068,-0.0088,-0.0117,-0.0126,-0.0146,-0.0171,-0.0194,-0.017,-0.0198,-0.0201,-0.0185,-0.0186,-0.0187,-0.0188,0,0,0.0112,0.012,0.0123,0.0137,0.0124,0.0131,0.0135,0.0131,0.0143,0.0099,0.0109,0.0052,0.002,-0.0002,-0.0045,-0.0074,-0.0093,-0.0114,-0.0117,-0.0135,-0.0156,-0.0191,-0.0198,-0.0121,-0.0121,-0.0121,-0.0177,0,0.015,0.0191,0.0178,0.0215,0.0236,0.0209,0.0223,0.0212,0.0191,0.0191,0.013,0.012,0.0054,0.0046,0.0003,-0.0065,-0.0098,-0.0075,-0.0179,-0.0182,-0.0214,-0.0201,-0.0166,-0.0215,-0.018,-0.0181,-0.0181,0,0.0194,0.0217,0.0261,0.0287,0.0294,0.0309,0.0328,0.0335,0.0316,0.0302,0.0269,0.0221,0.0174,0.0116,0.0005,0.0022,-0.0059,-0.012,-0.0124,-0.0178,-0.0222,-0.0234,-0.0221,-0.0186,-0.0186,-0.0186,-0.0185,0,0.0242,0.0276,0.0315,0.0324,0.0344,0.0363,0.0376,0.0372,0.04,0.038,0.0399,0.0313,0.0297,0.0176,0.0037,0.0025,-0.0087,-0.0122,-0.023,-0.0234,-0.0234,-0.0237,-0.0199,-0.0199,-0.0199,-0.0199,-0.0199,0,0.0292,0.0324,0.0346,0.0371,0.0428,0.0423,0.0482,0.048,0.0503,0.0553,0.0466,0.0485,0.0313,0.0223,0.0074,-0.0085,-0.0064,-0.0218,-0.025,-0.0212,-0.0213,-0.0214,-0.0215,-0.0201,-0.02,-0.02,-0.02,0,0.0336,0.0347,0.0401,0.0438,0.0452,0.0498,0.0563,0.0614,0.0623,0.0688,0.0694,0.0625,0.0507,0.032,0.0132,-0.0015,-0.0177,-0.0241,-0.0184,-0.0209,-0.0313,-0.031,-0.0362,-0.0364,-0.0365,-0.0366,-0.0367,0,0.0361,0.0393,0.0454,0.0497,0.0517,0.0584,0.0639,0.067,0.0732,0.0779,0.0821,0.0737,0.0676,0.0379,0.011,-0.0155,-0.0187,-0.0294,-0.0321,-0.0303,-0.0329,-0.0324,-0.0319,-0.0295,-0.0295,-0.0296,-0.0296,0,0.0407,0.0429,0.0475,0.0564,0.063,0.0716,0.0798,0.0861,0.0914,0.0967,0.1013,0.097,0.0705,0.044,0.0076,-0.0102,-0.0256,-0.031,-0.0297,-0.0264,-0.0246,-0.027,-0.0266,-0.0298,-0.0298,-0.0298,-0.0298,-0.0298,0.0436,0.0486,0.0547,0.0627,0.0721,0.0833,0.0898,0.0996,0.1091,0.1161,0.1133,0.108,0.0798,0.0328,0.0026,-0.0279,-0.0276,-0.0381,-0.0377,-0.0374,-0.0361,-0.0347,-0.0415,-0.0416,-0.0416,-0.0416,-0.0417,0,0.0457,0.0515,0.0604,0.0704,0.0808,0.085,0.0991,0.1055,0.1161,0.1238,0.1255,0.0996,0.0701,0.0384,-0.0067,-0.0352,-0.0362,-0.0435,-0.0376,-0.0372,-0.0369,-0.0353,-0.0407,-0.0408,-0.0408,-0.0409,0,0,0.0471,0.0542,0.0586,0.0737,0.0821,0.0951,0.1027,0.1136,0.1221,0.1268,0.1256,0.1177,0.0807,0.0483,0.0107,-0.0142,-0.0193,-0.0196,-0.0174,-0.0055,-0.0048,-0.031,-0.0279,0,0,0,0,0]}],[{"header":{"parameterUnit":"m.s-1","parameterCategory":2,"la1":30.2991,"la2":30.254,"lo1":-89.0895,"lo2":-89.0444,"dy":0.0017,"dx":0.0017,"nx":28,"ny":28,"refTime":"2024-08-28T03:00:00:Z","depth":"4","parameterNumber":2,"parameterNumberName":"U-component_of_CURRENTS"},"data":[0,0,0,0,0,0,0,0,0,0,0,0,0,0,0,0,0,0,0,0,0,0,0,0,0,0,0,0,0,0,0,0,0,0,0,0,0,0,0,0,0,0,0,0,0,0,0,0,0,0,0,0,0,0,0,0,0,0,0.13,0.1301,0,0.1345,0.1346,0.1346,0.1391,0.1392,0.1393,0.1393,0.1453,0.1454,0.1455,0,0,0,0,0,0,0,0,0,0,0,0,0,0.1236,0.1237,0.13,0.1301,0.1301,0.1345,0.1346,0.1347,0.1391,0.1392,0.1393,0.1393,0.1453,0.1454,0.1456,0,0,0,0,0,0,0,0,0,0,0,0,0,0.1271,0.1238,0.13,0.1329,0.1332,0.1345,0.1346,0.1347,0.1391,0.1392,0.1393,0.1394,0.1452,0.1454,0.1456,0.1449,0,0,0.1461,0.1461,0,0,0,0,0,0,0,0,0.1269,0.1274,0.1324,0.1327,0.133,0.1363,0.1345,0.1382,0.1391,0.1369,0.1393,0.1394,0.1424,0.1428,0.1435,0.1452,0.1455,0.1461,0.1462,0.1463,0.1463,0,0,0,0,0,0,0,0.1267,0.1272,0.1319,0.1324,0.1328,0.1333,0.1339,0.1352,0.1392,0.1371,0.1374,0.1378,0.1426,0.1433,0.1437,0.1456,0.1461,0.1462,0.1463,0.1464,0.1574,0.1576,0,0,0,0,0,0,0.126,0.127,0.1317,0.132,0.13,0.1334,0.1341,0.1352,0.1392,0.1398,0.1377,0.138,0.143,0.1435,0.1439,0.153,0.1463,0.1464,0.1465,0.1572,0.1574,0.1576,0,0,0,0,0,0,0.1259,0.1265,0.1315,0.1295,0.1302,0.1334,0.1346,0.1353,0.1395,0.1396,0.1403,0.1417,0.1431,0.1437,0.1488,0.1529,0.1465,0.1466,0.157,0.1573,0.1575,0.1649,0,0,0,0,0,0,0.1257,0.1264,0.1286,0.1295,0.1303,0.1348,0.1346,0.1353,0.1393,0.1398,0.1432,0.1436,0.1432,0.1486,0.149,0.153,0.1468,0.1567,0.1571,0.1574,0.1645,0.1655,0.1663,0,0,0,0,0,0.1255,0.1273,0.1287,0.1294,0.1327,0.1349,0.1354,0.1379,0.1395,0.142,0.1449,0.1437,0.1511,0.1489,0.1493,0.1534,0.1565,0.157,0.1574,0.164,0.1653,0.1663,0,0,0,0,0,0,0.126,0.1279,0.1295,0.1321,0.1347,0.1357,0.1382,0.1399,0.1441,0.1454,0.1461,0.1468,0.1528,0.1522,0.1496,0.1577,0.1537,0.1542,0.1586,0.1597,0.1606,0.16,0.1469,0,0,0,0,0,0.127,0.129,0.1311,0.1336,0.1351,0.1375,0.1394,0.1411,0.1438,0.1459,0.1486,0.1514,0.1543,0.1564,0.1584,0.1627,0.1628,0.1657,0.1666,0.1674,0.1673,0.172,0.1733,0.1591,0.1591,0.1591,0,0,0.1278,0.1293,0.1305,0.134,0.1361,0.1386,0.139,0.1425,0.1456,0.1457,0.1523,0.1549,0.1562,0.1614,0.164,0.1619,0.1718,0.168,0.1686,0.168,0.1726,0.1739,0.1752,0.1594,0.1593,0.1593,0,0,0.1288,0.1321,0.1338,0.1364,0.14,0.1414,0.1433,0.1469,0.1502,0.1556,0.1572,0.1625,0.1667,0.1689,0.1701,0.1773,0.1766,0.1788,0.183,0.1877,0.1888,0.1899,0.1925,0.1937,0.1792,0.1792,0.1792,0,0.1301,0.1327,0.1349,0.1374,0.1399,0.1432,0.146,0.1492,0.1546,0.1582,0.1588,0.1685,0.1698,0.1762,0.179,0.1794,0.1815,0.1786,0.1888,0.1899,0.1908,0.1932,0.1945,0.1796,0.1796,0.1795,0.1795,0,0.1318,0.1351,0.1366,0.1408,0.1439,0.1471,0.151,0.156,0.1605,0.164,0.1731,0.1761,0.1819,0.1837,0.1835,0.1917,0.1909,0.1895,0.1858,0.1927,0.1948,0.196,0.1802,0.18,0.1799,0.1798,0,0,0.1306,0.1366,0.1375,0.14,0.1463,0.1482,0.1547,0.1611,0.1664,0.1732,0.1809,0.1869,0.1907,0.1923,0.1943,0.1981,0.2067,0.1973,0.1974,0.1995,0.217,0.2038,0.2037,0.2082,0.2084,0.2086,0.2161,0,0.1318,0.1359,0.1395,0.1445,0.1468,0.1528,0.1582,0.1648,0.1716,0.1801,0.186,0.1939,0.1934,0.1982,0.2023,0.2061,0.21,0.2047,0.2103,0.2104,0.1975,0.2047,0.2093,0.2169,0.2172,0.2174,0.2175,0,0.1318,0.1347,0.1394,0.1461,0.1481,0.1527,0.1625,0.1681,0.1799,0.1857,0.1952,0.2007,0.2098,0.2076,0.2174,0.2147,0.2167,0.2181,0.2184,0.2038,0.1993,0.2085,0.2195,0.2194,0.2192,0.2191,0.219,0,0.1277,0.1344,0.1382,0.1407,0.1489,0.1541,0.1601,0.171,0.1777,0.1914,0.1983,0.2088,0.2161,0.2209,0.2253,0.2231,0.2342,0.231,0.2206,0.2197,0.2258,0.2246,0.2372,0.2372,0.2371,0.2371,0.2371,0,0.1258,0.129,0.1373,0.1393,0.1455,0.1527,0.1618,0.1696,0.1825,0.1909,0.2021,0.2094,0.2202,0.2278,0.2293,0.2288,0.2381,0.2221,0.2212,0.2289,0.2279,0.2267,0.2254,0.2374,0.2373,0.2373,0.2372,0,0.1199,0.1257,0.1301,0.1398,0.1436,0.1485,0.1626,0.1688,0.1819,0.1935,0.1991,0.2137,0.2228,0.2309,0.2392,0.2326,0.2339,0.2312,0.2399,0.2392,0.215,0.214,0.2194,0.219,0.2186,0.2184,0.2181,0,0.1168,0.1183,0.1289,0.1323,0.1377,0.1466,0.1529,0.1675,0.1745,0.1937,0.1981,0.2132,0.2212,0.2225,0.2306,0.2334,0.2303,0.2285,0.2199,0.2148,0.2135,0.213,0.2125,0.2176,0.2175,0.2174,0.2173,0,0.1102,0.1153,0.1192,0.1257,0.1331,0.14,0.1508,0.1545,0.171,0.1853,0.1936,0.1994,0.2091,0.2146,0.2193,0.22,0.2281,0.2249,0.2255,0.2174,0.2128,0.2116,0.2115,0.2162,0.2164,0.2165,0.2165,0,0.1056,0.107,0.1127,0.1176,0.1258,0.1301,0.137,0.1456,0.1544,0.1759,0.1782,0.1934,0.2075,0.2078,0.2117,0.2124,0.208,0.1992,0.201,0.2023,0.1931,0.1845,0.1794,0,0,0,0,0,0.1002,0.1008,0.1039,0.109,0.1161,0.1211,0.1336,0.1409,0.1573,0.1594,0.1686,0.1772,0.1839,0.1911,0.1884,0.2026,0.2076,0.1982,0.198,0.2098,0.2111,0.2017,0,0,0,0,0,0,0.097,0.0997,0.1004,0.0999,0.1015,0.1089,0.116,0.1271,0.1291,0.1466,0.1517,0.1658,0.1753,0.1845,0.185,0.1873,0.1831,0.2085,0.208,0.209,0.2102,0.2113,0.2021,0,0,0,0,0]},{"header":{"parameterUnit":"m.s-1","parameterCategory":2,"la1":30.2991,"la2":30.254,"lo1":-89.0895,"lo2":-89.0444,"dy":0.0017,"dx":0.0017,"nx":28,"ny":28,"refTime":"2024-08-28T03:00:00:Z","depth":"4","parameterNumber":3,"parameterNumberName":"V-component_of_CURRENTS"},"data":[0,0,0,0,0,0,0,0,0,0,0,0,0,0,0,0,0,0,0,0,0,0,0,0,0,0,0,0,0,0,0,0,0,0,0,0,0,0,0,0,0,0,0,0,0,0,0,0,0,0,0,0,0,0,0,0,0,0,0.0039,0.0038,0,0.0007,0.0006,0.0006,-0.0015,-0.0015,-0.0015,-0.0015,-0.0083,-0.0084,-0.0086,0,0,0,0,0,0,0,0,0,0,0,0,0,0.0055,0.0055,0.0039,0.0038,0.0038,0.0007,0.0006,0.0006,-0.0014,-0.0015,-0.0015,-0.0015,-0.0082,-0.0084,-0.0086,0,0,0,0,0,0,0,0,0,0,0,0,0,0.0038,0.0055,0.0039,0.0025,0.0023,0.0007,0.0006,0.0006,-0.0014,-0.0015,-0.0015,-0.0015,-0.0081,-0.0084,-0.0087,-0.0101,0,0,-0.0095,-0.0096,0,0,0,0,0,0,0,0,0.0039,0.0037,0.0027,0.0026,0.0024,0.0,-0.0013,-0.0032,-0.0014,-0.0001,-0.0015,-0.0015,-0.0058,-0.0062,-0.0068,-0.0104,-0.0107,-0.0095,-0.0096,-0.0098,-0.0098,0,0,0,0,0,0,0,0.004,0.0038,0.0026,0.0027,0.0025,0.001,0.0008,-0.0017,-0.0029,-0.0002,-0.0003,-0.0006,-0.0059,-0.0066,-0.007,-0.0108,-0.0095,-0.0097,-0.0099,-0.01,-0.0165,-0.0165,0,0,0,0,0,0,0.0047,0.0039,0.0027,0.0025,0.0032,0.001,0.0008,0.0008,-0.0028,-0.0034,-0.0006,-0.0007,-0.0061,-0.0067,-0.0073,-0.0089,-0.0097,-0.01,-0.0101,-0.0165,-0.0165,-0.0165,0,0,0,0,0,0,0.0047,0.0046,0.0028,0.0031,0.0028,0.001,0.001,0.0007,-0.0,-0.0031,-0.0037,-0.001,-0.0062,-0.0069,-0.0093,-0.0092,-0.0101,-0.0104,-0.0164,-0.0165,-0.0165,-0.0124,0,0,0,0,0,0,0.0048,0.0046,0.0047,0.0032,0.0028,0.0022,0.001,0.0007,-0.0002,-0.0003,-0.0036,-0.0043,-0.0062,-0.0089,-0.0095,-0.0096,-0.0106,-0.0164,-0.0165,-0.0165,-0.0125,-0.0123,-0.0121,0,0,0,0,0,0.0048,0.0054,0.0047,0.0046,0.0031,0.0022,0.0019,0.0005,-0.0002,-0.0003,-0.0025,-0.0042,-0.0095,-0.0091,-0.0099,-0.01,-0.0164,-0.0164,-0.0165,-0.0126,-0.0123,-0.0121,0,0,0,0,0,0,0.0062,0.0052,0.0045,0.0047,0.0036,0.0019,0.0018,0.0006,-0.0012,-0.0014,-0.0044,-0.0052,-0.0073,-0.0093,-0.0088,-0.0121,-0.0133,-0.0135,-0.0101,-0.0098,-0.0096,-0.0076,-0.0108,0,0,0,0,0,0.0066,0.0069,0.0053,0.0056,0.0051,0.0034,0.0028,0.0019,0.0002,-0.0006,-0.003,-0.0057,-0.0081,-0.0094,-0.0118,-0.0136,-0.016,-0.0143,-0.0141,-0.0139,-0.0128,-0.0164,-0.0163,-0.0166,-0.0166,-0.0166,0,0,0.0072,0.0067,0.0069,0.0059,0.0049,0.005,0.003,0.0026,0.0026,-0.0012,-0.0021,-0.0051,-0.0084,-0.0102,-0.0114,-0.0119,-0.0153,-0.0139,-0.0137,-0.0128,-0.0164,-0.0164,-0.0163,-0.0166,-0.0166,-0.0166,0,0,0.0089,0.0082,0.0089,0.0084,0.0074,0.0062,0.0062,0.0044,0.0036,0.0021,-0.0005,-0.0032,-0.0069,-0.0089,-0.0105,-0.0107,-0.0141,-0.012,-0.0092,-0.0126,-0.0126,-0.0126,-0.0164,-0.0168,-0.0118,-0.0118,-0.0118,0,0.0096,0.0106,0.0089,0.0096,0.0098,0.0071,0.0081,0.0068,0.0044,0.0042,0.0024,-0.0027,-0.006,-0.0078,-0.008,-0.0101,-0.0128,-0.0097,-0.0122,-0.0123,-0.0123,-0.0163,-0.0167,-0.0116,-0.0116,-0.0116,-0.0116,0,0.0118,0.0127,0.0133,0.0133,0.0129,0.0135,0.0118,0.0114,0.0097,0.008,0.0058,0.0012,-0.0016,-0.0036,-0.006,-0.008,-0.0101,-0.0115,-0.0125,-0.012,-0.0163,-0.0168,-0.0113,-0.0114,-0.0114,-0.0115,0,0,0.0134,0.0147,0.0149,0.0165,0.0153,0.0158,0.0159,0.0154,0.0164,0.0124,0.0125,0.0073,0.0046,0.0026,-0.0013,-0.0046,-0.0085,-0.008,-0.0082,-0.0111,-0.0166,-0.0165,-0.0172,-0.0105,-0.0105,-0.0106,-0.0196,0,0.0157,0.0188,0.0182,0.0212,0.0229,0.0214,0.0222,0.0214,0.0194,0.0186,0.0135,0.0115,0.007,0.0055,0.0015,-0.0059,-0.0096,-0.0059,-0.0172,-0.0175,-0.0169,-0.0177,-0.0107,-0.0201,-0.0202,-0.0203,-0.0204,0,0.0181,0.0203,0.0237,0.027,0.0275,0.0286,0.0303,0.0308,0.0285,0.027,0.0237,0.019,0.0135,0.0096,-0.0021,0.0003,-0.0073,-0.0134,-0.0139,-0.0152,-0.0184,-0.0206,-0.0214,-0.0213,-0.0213,-0.0212,-0.0211,0,0.021,0.0243,0.0278,0.0287,0.0311,0.0329,0.0341,0.0334,0.0351,0.0323,0.0318,0.0245,0.0204,0.0107,-0.0025,-0.0025,-0.016,-0.0176,-0.0247,-0.0249,-0.024,-0.0239,-0.0253,-0.0253,-0.0253,-0.0253,-0.0252,0,0.024,0.0271,0.03,0.0321,0.0372,0.0373,0.0419,0.0419,0.0422,0.0439,0.0366,0.0346,0.0204,0.0106,-0.0009,-0.0146,-0.015,-0.024,-0.0269,-0.0223,-0.0219,-0.0245,-0.0242,-0.0256,-0.0255,-0.0255,-0.0254,0,0.0264,0.0281,0.0331,0.0372,0.0388,0.0427,0.0478,0.0508,0.0503,0.0519,0.0511,0.0414,0.0284,0.0137,-0.0036,-0.0123,-0.0254,-0.0302,-0.0245,-0.0269,-0.0325,-0.032,-0.0384,-0.0385,-0.0385,-0.0386,-0.0386,0,0.0278,0.0304,0.0369,0.0405,0.0426,0.0485,0.0523,0.0547,0.0573,0.0556,0.0557,0.0443,0.036,0.0123,-0.0039,-0.0252,-0.0282,-0.0348,-0.0331,-0.0315,-0.0337,-0.0331,-0.0325,-0.0387,-0.0387,-0.0387,-0.0387,0,0.0299,0.0323,0.0362,0.0434,0.0486,0.0558,0.061,0.0631,0.065,0.0653,0.0599,0.0474,0.0322,0.0129,-0.004,-0.0193,-0.0301,-0.0354,-0.0354,-0.0339,-0.032,-0.034,-0.0333,-0.0389,-0.0389,-0.0389,-0.0389,0,0.0305,0.0337,0.0382,0.045,0.052,0.0586,0.0627,0.0652,0.0678,0.0658,0.0635,0.0478,0.039,0.0157,0.0001,-0.0148,-0.0184,-0.0223,-0.023,-0.023,-0.0159,-0.011,-0.0137,0,0,0,0,0,0.0299,0.0326,0.039,0.0459,0.0537,0.0583,0.0655,0.0688,0.0703,0.068,0.0666,0.053,0.0299,0.0188,0.0041,-0.0029,-0.0226,-0.0208,-0.0278,-0.04,-0.0398,-0.034,0,0,0,0,0,0,0.0286,0.0335,0.0373,0.0449,0.0503,0.0589,0.0639,0.0666,0.0655,0.0652,0.053,0.0496,0.0263,0.0383,0.0037,-0.001,-0.0073,-0.0311,-0.0314,-0.0401,-0.0399,-0.0397,-0.0337,0,0,0,0,0]}]]